Greenville Downtown, SC

5:29 PM EDT on May 23, 2017 (GMT -0400)
Greenville Downtown

Weather History for KGMU - March, 2013

Change the Weather History Date:

Saturday, March 9, 2013

  Actual Average Record
Temperature  
Mean Temperature 50 °F -  
Max Temperature 63 °F 58 °F 84 °F (2009)
Min Temperature 36 °F 39 °F 27 °F (2008)
Degree Days  
Heating Degree Days 16    
Moisture  
Dew Point 24 °F    
Average Humidity 38    
Maximum Humidity 57    
Minimum Humidity 23    
Precipitation  
Precipitation 0.00 in - - ()
Sea Level Pressure  
Sea Level Pressure 30.29 in    
Wind  
Wind Speed 3 mph (ENE)    
Max Wind Speed 8 mph    
Max Gust Speed -    
Visibility 10 miles    
Events      
Averages and records for this station are not official NWS values.
T = Trace of Precipitation, MM = Missing Value Source: NWS Daily Summary

Daily Weather History Graph

Daily Weather History Graph

Search for Another Location

Airport or City:

Trip Planner

Search our weather history database for the weather conditions in past years. The results will help you decide how hot, cold, wet, or windy it might be!

Date:

Astronomy

Mar. 09, 2013 Rise Set
Actual Time 6:47 AM EST 6:32 PM EST
Civil Twilight 6:22 AM EST 6:57 PM EST
Nautical Twilight 5:53 AM EST 7:26 PM EST
Astronomical Twilight 5:24 AM EST 7:56 PM EST
Moon 5:06 AM EST (3/9) 4:36 PM EST (3/9)
Length of Visible Light 12h 34m
Length of Day
11h 44m
Waning Crescent, 5% of the Moon is Illuminated
Mar 9
Waning Crescent
Mar 11
New
Mar 19
First Quarter
Mar 27
Full
Apr 3
Last Quarter

Hourly Weather History & Observations

Time (EST) Temp. Windchill Dew Point Humidity Pressure Visibility Wind Dir Wind Speed Gust Speed Precip Events Conditions
12:53 AM 43.0 °F - 21.0 °F 42% 30.30 in 10.0 mi Calm Calm - N/A   Clear
1:53 AM 39.9 °F 35.1 °F 21.9 °F 49% 30.30 in 10.0 mi East 6.9 mph - N/A   Clear
2:53 AM 41.0 °F 39.0 °F 21.9 °F 47% 30.28 in 10.0 mi ENE 3.5 mph - N/A   Clear
3:53 AM 39.9 °F 35.8 °F 21.9 °F 49% 30.27 in 10.0 mi NE 5.8 mph - N/A   Clear
4:53 AM 37.9 °F 33.5 °F 21.9 °F 53% 30.29 in 10.0 mi ENE 5.8 mph - N/A   Clear
5:53 AM 37.0 °F 33.3 °F 21.9 °F 54% 30.30 in 10.0 mi NE 4.6 mph - N/A   Clear
6:53 AM 36.0 °F 32.1 °F 21.9 °F 57% 30.32 in 10.0 mi NNE 4.6 mph - N/A   Clear
7:53 AM 42.1 °F 40.2 °F 23.0 °F 47% 30.34 in 10.0 mi NE 3.5 mph - N/A   Clear
8:53 AM 45.0 °F 40.6 °F 23.0 °F 42% 30.36 in 10.0 mi ENE 8.1 mph - N/A   Clear
9:53 AM 48.9 °F - 24.1 °F 38% 30.37 in 10.0 mi East 6.9 mph - N/A   Clear
10:53 AM 50.0 °F - 25.0 °F 38% 30.36 in 10.0 mi Variable 3.5 mph - N/A   Clear
11:53 AM 54.0 °F - 25.0 °F 33% 30.34 in 10.0 mi Variable 3.5 mph - N/A   Clear
12:53 PM 57.0 °F - 23.0 °F 27% 30.32 in 10.0 mi Calm Calm - N/A   Clear
1:53 PM 59.0 °F - 23.0 °F 25% 30.29 in 10.0 mi SW 3.5 mph - N/A   Clear
2:53 PM 61.0 °F - 23.0 °F 23% 30.26 in 10.0 mi Calm Calm - N/A   Clear
3:53 PM 63.0 °F - 24.1 °F 23% 30.24 in 10.0 mi Calm Calm - N/A   Clear
4:53 PM 63.0 °F - 24.1 °F 23% 30.24 in 10.0 mi South 4.6 mph - N/A   Clear
5:53 PM 61.0 °F - 23.0 °F 23% 30.25 in 10.0 mi Calm Calm - N/A   Clear
6:53 PM 57.9 °F - 25.0 °F 28% 30.25 in 10.0 mi Calm Calm - N/A   Clear
7:53 PM 57.0 °F - 26.1 °F 30% 30.26 in 10.0 mi Calm Calm - N/A   Clear
8:53 PM 55.0 °F - 28.0 °F 35% 30.27 in 10.0 mi Calm Calm - N/A   Clear
9:53 PM 54.0 °F - 28.9 °F 38% 30.27 in 10.0 mi Calm Calm - N/A   Clear
10:53 PM 54.0 °F - 28.9 °F 38% 30.27 in 10.0 mi Calm Calm - N/A   Clear
11:53 PM 48.0 °F - 30.9 °F 52% 30.26 in 10.0 mi Calm Calm - N/A   Clear